TITAN 3C TRANSTAGE DEB, 26528

Orbit data source: Space-Track

TITAN 3C TRANSTAGE DEB, 26528 is space debris in HEO originally from a launch on Tue, 21 Dec 1965 UTC launched from the Air Force Eastern Test Range (AFETR). Debris objects in space refer to the collection of defunct objects orbiting the Earth. Examples of debris include non-operational satellites, rocket bodies, and fragments generated from explosions, collisions, or faulty payload assembly.

Loading next visibility...
Identifier
26528, 1965-108AP
Orbit
HEO
Country
Flag of USUS
Related business
Manufacturer
Unknown
Mission
Spacecraft
Bus & Motor
Unknown
Mass
Unknown
Launch date (UTC)
1965-12-21 (60 years ago)
Launch vehicle
Unknown
Launch site
Air Force Eastern Test Range (AFETR)
Object type
Payload
Rocket body
Debris
Shape & HBR
Unknown
Radar Cross Section
Medium (>0.1 m² and <1 m²)

Expand to show TLE details & history
Last TLE update: 20 hours ago

TLE from 20 hours ago
0 TITAN 3C TRANSTAGE DEB
1 26528U 65108AP  25258.58875941 -.00000194  00000-0  86980-3 0  9991
2 26528  27.5101  31.0982 6675159 125.9107 163.2355  2.68113415261070
Epoch: 2025-09-15T14:07Z
TLE epoch observation values (Epoch: 2025-09-15T14:07:48.813Z)
Latitude
-23.23328°
Longitude
128.9027°
Altitude
29,913.037 km
Speed
1.938 km/s
True Right ascension
22h 22m 35s
True Declination
-23° 12' 32"
Sunlit
Object was in daylight at epoch
Visualization orbit readout
Latitude
Unknown
Longitude
Unknown
Altitude
Unknown
Speed
Unknown
Apparent Right ascension
Unknown
Apparent Declination
Unknown
Sunlit
N/A
Visualization observer readout
Local Sidereal Time
02:37:19
Azimuth
Unknown
Elevation
Unknown
Doppler factor
Unknown
Orbital elements
Apogee altitude
30,124.606 km
Perigee altitude
900.103 km
Semi-major axis
21,890.491 km
Eccentricity
0.66752
Inclination
27.5101°
RAAN
31.0982°
Arg. of periapsis
125.9107°
True anomaly
175.49221°
Mean anomaly
163.2355°
Eccentric anomaly
169.92567°
Mean motion
0.67013 °/min
Orbital period
537.21 mins
BSTAR
0.0008698
Loading maneuver chart data...
Computing Atmospheric mass density...

Documentation

Showing up to 5 results
|